When you browse on this site, cookies collect data to enhance your experience and personalize the content and advertising you see.
Visit our Privacy Policy to learn more. By continuing to use the site, you agree to this use of cookies and data.
EN

Hourly Weather Rostock

Today, 7 August, Friday

Time Temperature Precipitation Wind Pressure Humidity
00:00 +19°C° 0 mm 3 mps 766 mmHg 64%
01:00 +18°C° 0 mm 3 mps 766 mmHg 68%
02:00 +18°C° 0 mm 3 mps 766 mmHg 70%
03:00 +18°C° 0 mm 3 mps 766 mmHg 72%
04:00 +18°C° 0 mm 3 mps 766 mmHg 74%
05:00 +19°C° 0 mm 2 mps 766 mmHg 75%
06:00 +20°C° 0 mm 2 mps 766 mmHg 75%
07:00 +21°C° 0 mm 2 mps 766 mmHg 74%
08:00 +24°C° 0 mm 2 mps 766 mmHg 69%
09:00 +26°C° 0 mm 2 mps 766 mmHg 64%
10:00 +28°C° 0 mm 2 mps 766 mmHg 59%
11:00 +29°C° 0 mm 2 mps 766 mmHg 56%
12:00 +29°C° 0 mm 3 mps 766 mmHg 53%
13:00 +30°C° 0 mm 3 mps 766 mmHg 50%
14:00 +30°C° 0 mm 3 mps 765 mmHg 52%
15:00 +30°C° 0 mm 4 mps 765 mmHg 55%
16:00 +30°C° 0 mm 4 mps 765 mmHg 57%
17:00 +28°C° 0 mm 4 mps 765 mmHg 64%
18:00 +27°C° 0 mm 4 mps 765 mmHg 71%
19:00 +26°C° 0 mm 4 mps 765 mmHg 78%
20:00 +23°C° 0 mm 4 mps 765 mmHg 80%
21:00 +22°C° 0 mm 3 mps 765 mmHg 83%
22:00 +21°C° 0 mm 3 mps 765 mmHg 85%
23:00 +21°C° 0 mm 3 mps 765 mmHg 85%

Tomorrow, 8 August, Saturday

Time Temperature Precipitation Wind Pressure Humidity
00:00 +21°C° 0 mm 2 mps 765 mmHg 84%
01:00 +20°C° 0 mm 2 mps 765 mmHg 84%
02:00 +21°C° 0 mm 1 mps 765 mmHg 85%
03:00 +21°C° 0 mm 1 mps 765 mmHg 87%
04:00 +21°C° 0 mm 1 mps 764 mmHg 88%
05:00 +22°C° 0 mm 1 mps 764 mmHg 85%
06:00 +23°C° 0 mm 1 mps 764 mmHg 81%
07:00 +24°C° 0 mm 1 mps 764 mmHg 78%
08:00 +26°C° 0 mm 1 mps 764 mmHg 73%
09:00 +27°C° 0 mm 2 mps 765 mmHg 68%
10:00 +28°C° 0 mm 2 mps 765 mmHg 63%
11:00 +29°C° 0 mm 2 mps 764 mmHg 61%
12:00 +30°C° 0 mm 2 mps 764 mmHg 58%
13:00 +30°C° 0 mm 2 mps 764 mmHg 56%
14:00 +30°C° 0 mm 2 mps 764 mmHg 57%
15:00 +30°C° 0 mm 2 mps 764 mmHg 58%
16:00 +30°C° 0 mm 2 mps 764 mmHg 59%
17:00 +28°C° 0 mm 2 mps 764 mmHg 65%
18:00 +27°C° 0 mm 2 mps 764 mmHg 71%
19:00 +25°C° 0 mm 2 mps 764 mmHg 77%
20:00 +24°C° 0 mm 2 mps 764 mmHg 79%
21:00 +23°C° 0 mm 2 mps 764 mmHg 81%
22:00 +22°C° 0 mm 1 mps 764 mmHg 83%
23:00 +22°C° 0 mm 1 mps 764 mmHg 84%

Day after tomorrow, 9 August, Sunday

Time Temperature Precipitation Wind Pressure Humidity
00:00 +22°C° 0 mm 1 mps 764 mmHg 85%
01:00 +21°C° 0 mm 1 mps 764 mmHg 86%
02:00 +21°C° 0 mm 1 mps 764 mmHg 87%
03:00 +20°C° 0 mm 2 mps 764 mmHg 87%
04:00 +20°C° 0 mm 2 mps 764 mmHg 87%
05:00 +21°C° 0 mm 2 mps 764 mmHg 85%
06:00 +23°C° 0 mm 2 mps 764 mmHg 83%
07:00 +22°C° 0 mm 3 mps 764 mmHg 80%
08:00 +25°C° 0 mm 3 mps 764 mmHg 74%
09:00 +26°C° 0 mm 3 mps 764 mmHg 69%
10:00 +28°C° 0 mm 3 mps 764 mmHg 63%
11:00 +29°C° 0 mm 3 mps 764 mmHg 61%
12:00 +29°C° 0 mm 3 mps 764 mmHg 58%
13:00 +30°C° 0 mm 3 mps 764 mmHg 56%
14:00 +30°C° 0 mm 4 mps 763 mmHg 58%
15:00 +29°C° 0 mm 4 mps 763 mmHg 59%
16:00 +29°C° 0 mm 4 mps 763 mmHg 61%
17:00 +28°C° 0 mm 4 mps 763 mmHg 67%
18:00 +27°C° 0 mm 3 mps 763 mmHg 72%
19:00 +25°C° 0 mm 3 mps 763 mmHg 78%
20:00 +24°C° 0 mm 3 mps 763 mmHg 82%
21:00 +22°C° 0 mm 3 mps 763 mmHg 87%
22:00 +20°C° 0 mm 3 mps 763 mmHg 91%
23:00 +20°C° 0 mm 3 mps 763 mmHg 92%

10 August, Monday

Time Temperature Precipitation Wind Pressure Humidity
00:00 +19°C° 0 mm 3 mps 763 mmHg 92%
01:00 +19°C° 0 mm 3 mps 763 mmHg 93%
02:00 +19°C° 0 mm 3 mps 763 mmHg 93%
03:00 +19°C° 0 mm 2 mps 763 mmHg 93%
04:00 +19°C° 0 mm 2 mps 763 mmHg 93%
05:00 +20°C° 0 mm 2 mps 763 mmHg 89%
06:00 +21°C° 0 mm 3 mps 763 mmHg 86%
07:00 +22°C° 0 mm 3 mps 763 mmHg 82%
08:00 +24°C° 0 mm 3 mps 763 mmHg 77%
09:00 +26°C° 0 mm 3 mps 763 mmHg 71%
10:00 +28°C° 0 mm 4 mps 763 mmHg 65%
11:00 +29°C° 0 mm 4 mps 763 mmHg 61%
12:00 +30°C° 0 mm 4 mps 762 mmHg 56%
13:00 +32°C° 0 mm 4 mps 762 mmHg 51%
14:00 +32°C° 0 mm 5 mps 762 mmHg 51%
15:00 +30°C° 0 mm 5 mps 762 mmHg 51%
16:00 +30°C° 0 mm 5 mps 762 mmHg 51%
17:00 +28°C° 0 mm 5 mps 762 mmHg 58%
18:00 +27°C° 0 mm 5 mps 762 mmHg 65%
19:00 +25°C° 0 mm 5 mps 762 mmHg 72%
20:00 +22°C° 0 mm 4 mps 762 mmHg 75%
21:00 +21°C° 0 mm 4 mps 762 mmHg 78%
22:00 +20°C° 0 mm 4 mps 763 mmHg 81%
23:00 +19°C° 0 mm 4 mps 763 mmHg 82%

11 August, Tuesday

Time Temperature Precipitation Wind Pressure Humidity
00:00 +19°C° 0 mm 4 mps 763 mmHg 84%
01:00 +19°C° 0 mm 3 mps 763 mmHg 85%
02:00 +19°C° 0 mm 4 mps 763 mmHg 88%
03:00 +19°C° 0 mm 4 mps 763 mmHg 91%
04:00 +18°C° 0 mm 4 mps 763 mmHg 93%
05:00 +20°C° 0 mm 4 mps 763 mmHg 89%
06:00 +21°C° 0 mm 4 mps 763 mmHg 85%
07:00 +22°C° 0 mm 4 mps 763 mmHg 82%
08:00 +23°C° 0 mm 4 mps 763 mmHg 76%
09:00 +26°C° 0 mm 4 mps 763 mmHg 70%
10:00 +28°C° 0 mm 4 mps 763 mmHg 64%
11:00 +29°C° 0 mm 5 mps 763 mmHg 59%
12:00 +29°C° 0 mm 5 mps 763 mmHg 55%
13:00 +30°C° 0 mm 5 mps 763 mmHg 51%
14:00 +30°C° 0 mm 5 mps 763 mmHg 52%
15:00 +30°C° 0 mm 6 mps 763 mmHg 52%
16:00 +29°C° 0 mm 6 mps 763 mmHg 53%
17:00 +27°C° 0 mm 6 mps 763 mmHg 58%
18:00 +24°C° 0 mm 6 mps 763 mmHg 63%
19:00 +22°C° 0 mm 6 mps 763 mmHg 68%
20:00 +21°C° 0 mm 6 mps 763 mmHg 68%
21:00 +20°C° 0 mm 6 mps 763 mmHg 67%
22:00 +19°C° 0 mm 6 mps 764 mmHg 67%
23:00 +19°C° 0 mm 6 mps 764 mmHg 67%

12 August, Wednesday

Time Temperature Precipitation Wind Pressure Humidity
00:00 +19°C° 0 mm 6 mps 764 mmHg 68%
01:00 +19°C° 0 mm 6 mps 764 mmHg 68%
02:00 +17°C° 0 mm 6 mps 764 mmHg 70%
03:00 +17°C° 0 mm 6 mps 764 mmHg 72%
04:00 +17°C° 0 mm 5 mps 764 mmHg 74%
05:00 +17°C° 0 mm 6 mps 764 mmHg 73%
06:00 +19°C° 0 mm 6 mps 764 mmHg 71%
07:00 +19°C° 0 mm 6 mps 764 mmHg 70%
08:00 +21°C° 0 mm 6 mps 764 mmHg 65%
09:00 +22°C° 0 mm 5 mps 764 mmHg 61%
10:00 +25°C° 0 mm 5 mps 764 mmHg 56%
11:00 +26°C° 0 mm 5 mps 764 mmHg 54%
12:00 +26°C° 0 mm 5 mps 764 mmHg 52%
13:00 +27°C° 0 mm 5 mps 763 mmHg 49%
14:00 +27°C° 0 mm 5 mps 763 mmHg 50%
15:00 +27°C° 0 mm 5 mps 763 mmHg 50%
16:00 +27°C° 0 mm 5 mps 763 mmHg 50%
17:00 +26°C° 0 mm 5 mps 762 mmHg 57%
18:00 +23°C° 0 mm 5 mps 762 mmHg 64%
19:00 +21°C° 0 mm 5 mps 762 mmHg 71%
20:00 +20°C° 0 mm 5 mps 762 mmHg 75%
21:00 +19°C° 0 mm 4 mps 762 mmHg 80%
22:00 +17°C° 0 mm 4 mps 762 mmHg 84%
23:00 +18°C° 0 mm 4 mps 762 mmHg 80%
Show more